Charleville, France

9:46 AM CEST on March 28, 2017 (GMT +0200)
Charleville

Weather History for LFQV - March, 2014

Change the Weather History Date:

Monday, March 24, 2014

  Actual Average Record
Temperature  
Mean Temperature 40 °F -  
Max Temperature 51 °F - - ()
Min Temperature 29 °F - - ()
Degree Days  
Heating Degree Days 25    
Moisture  
Dew Point 32 °F    
Average Humidity 69    
Maximum Humidity 93    
Minimum Humidity 34    
Precipitation  
Precipitation 0.01 in - - ()
Sea Level Pressure  
Sea Level Pressure 29.94 in    
Wind  
Wind Speed 4 mph ()    
Max Wind Speed 12 mph    
Max Gust Speed -    
Visibility 10.2 miles    
Events Rain    
T = Trace of Precipitation, MM = Missing Value Source: Averaged Metar Reports

Daily Weather History Graph

Daily Weather History Graph

Search for Another Location

Airport or City:

Trip Planner

Search our weather history database for the weather conditions in past years. The results will help you decide how hot, cold, wet, or windy it might be!

Date:

Astronomy

Mar. 24, 2014 Rise Set
Actual Time 6:36 AM CET 7:00 PM CET
Civil Twilight 6:03 AM CET 7:32 PM CET
Nautical Twilight 5:25 AM CET 8:10 PM CET
Astronomical Twilight 4:46 AM CET 8:50 PM CET
Moon 2:23 AM CET (3/24) 11:37 AM CET (3/24)
Length of Visible Light 13h 28m
Length of Day
12h 24m
Last Quarter, 46% of the Moon is Illuminated
Mar 24
Last Quarter
Mar 30
New
Apr 7
First Quarter
Apr 15
Full
Apr 22
Last Quarter

Hourly Weather History & Observations

Time (CET) Temp. Dew Point Humidity Pressure Visibility Wind Dir Wind Speed Gust Speed Precip Events Conditions
12:00 AM 39 °F 35 °F 81% 29.88 in 12 mi WNW 4.6 mph - -   Clear
1:00 AM 36 °F 33 °F 85% 29.90 in 12 mi WNW 4.6 mph - -   Clear
2:00 AM 37 °F 35 °F 92% 29.91 in 12 mi WNW 5.8 mph - -   Clear
3:00 AM 37 °F 34 °F 85% 29.91 in 9 mi WNW 3.5 mph - -   Clear
4:00 AM 35 °F 32 °F 86% 29.93 in 7 mi NW 3.5 mph - -   Clear
5:00 AM 34 °F 32 °F 89% 29.94 in 6 mi WNW 4.6 mph - -   Clear
6:00 AM 36 °F 35 °F 93% 29.95 in 4 mi NW 4.6 mph - -   Clear
7:00 AM 37 °F 35 °F 91% 29.96 in 6 mi WNW 6.9 mph - -   Clear
8:00 AM 38 °F 36 °F 90% 29.98 in 5 mi NW 6.9 mph - -   Clear
9:00 AM 42 °F 35 °F 68% 29.98 in 12 mi NNW 11.5 mph - -   Clear
10:00 AM 43 °F 33 °F 58% 29.99 in 12 mi North 8.1 mph - -   Clear
11:00 AM 44 °F 33 °F 55% 29.99 in 12 mi NNE 4.6 mph - -   Clear
12:00 PM 46 °F 31 °F 43% 29.97 in 12 mi NW 4.6 mph - -   Clear
1:00 PM 45 °F 32 °F 49% 29.96 in 12 mi WNW 9.2 mph - -   Clear
2:00 PM 44 °F 28 °F 40% 29.96 in 11 mi North 6.9 mph - - Rain Light Rain
3:00 PM 46 °F 30 °F 41% 29.94 in 12 mi WNW 4.6 mph - -   Clear
4:00 PM 47 °F 30 °F 40% 29.93 in 12 mi East 4.6 mph - -   Clear
5:00 PM 50 °F 30 °F 34% 29.91 in 12 mi WSW 2.3 mph - -   Clear
6:00 PM 48 °F 30 °F 38% 29.91 in 12 mi West 3.5 mph - -   Clear
7:00 PM 42 °F 31 °F 54% 29.93 in 12 mi West 2.3 mph - -   Clear
8:00 PM 35 °F 29 °F 70% 29.95 in 12 mi NE 2.3 mph - -   Clear
9:00 PM 32 °F 29 °F 86% 29.96 in 12 mi SW 2.3 mph - -   Clear
10:00 PM 29 °F 26 °F 85% 29.96 in 9 mi SW 2.3 mph - -   Clear
11:00 PM 29 °F 28 °F 93% 29.96 in 8 mi NW 2.3 mph - -   Clear